This demonstration page uses our WeatherBlox Daily Observations layout. Learn more.

Left ArrowRight Arrow

39.01783, -85.05884

Hourly Observations for January 7, 2020

Temp ( °F °C ) Dew Point ( °F °C ) Humidity (%) Winds ( mph kmh ) Pressure ( in mb ) Visibility ( mi km ) Precip ( " mm )
12:52 am 00:52 Cloudy 34 1.1 22 -5.6 61 61 NNE 3 6 30.06 1018 10 16 0.00 0.00
1:52 am 01:52 Cloudy 34 1.1 24 -4.4 67 67 E 7 11 30.02 1017 10 16 0.00 0.00
2:52 am 02:52 Cloudy 34 1.1 23 -5 64 64 Calm 30.00 1016 10 16 0.00 0.00
3:52 am 03:52 Cloudy 34 1.1 22 -5.6 61 61 ENE 5 7 29.98 1015 10 16 0.00 0.00
4:52 am 04:52 Cloudy 34 1.1 23 -5 64 64 Calm 29.98 1015 10 16 0.00 0.00
5:52 am 05:52 Cloudy 32 0 25 -3.9 75 75 N 7 11 30.00 1016 10 16 0.00 0.00
6:52 am 06:52 Cloudy 33 0.6 23 -5 66 66 NNW 6 9 29.98 1015 10 16 0.00 0.00
7:52 am 07:52 Cloudy 30 -1.1 24 -4.4 79 79 Calm 29.98 1015 10 16 0.00 0.00
8:52 am 08:52 Partly Cloudy 32 0 23 -5 69 69 Calm 30.00 1016 10 16 0.00 0.00
9:52 am 09:52 Partly Cloudy 36 2.2 25 -3.9 64 64 Calm 30.01 1016 10 16 0.00 0.00
10:52 am 10:52 Mostly Sunny 42 5.6 24 -4.4 49 49 SSW 3 6 30.03 1017 10 16 0.00 0.00
11:52 am 11:52 Sunny 44 6.7 25 -3.9 47 47 W 10 17 30.02 1017 10 16 0.00 0.00
12:52 pm 12:52 Sunny 46 7.8 24 -4.4 42 42 W 9 15 30.00 1016 10 16 0.00 0.00
1:52 pm 13:52 Sunny 48 8.9 16 -8.9 28 28 W 15 24 29.98 1015 10 16 0.00 0.00
2:52 pm 14:52 Mostly Sunny 48 8.9 14 -10 25 25 W 17 28 29.99 1016 10 16 0.00 0.00
3:52 pm 15:52 Mostly Cloudy 46 7.8 18 -7.8 32 32 W 12 19 30.01 1016 10 16 0.00 0.00
4:52 pm 16:52 Mostly Sunny 45 7.2 18 -7.8 34 34 W 10 17 30.04 1017 10 16 0.00 0.00
5:52 pm 17:52 Mostly Clear 41 5 19 -7.2 41 41 W 8 13 30.07 1018 10 16 0.00 0.00
6:52 pm 18:52 Clear 40 4.4 21 -6.1 47 47 W 10 17 30.09 1019 10 16 0.00 0.00
7:52 pm 19:52 Clear 39 3.9 22 -5.6 50 50 WSW 7 11 30.11 1020 10 16 0.00 0.00
8:52 pm 20:52 Mostly Clear 38 3.3 24 -4.4 57 57 SW 9 15 30.11 1020 10 16 0.00 0.00
9:52 pm 21:52 Mostly Cloudy 39 3.9 26 -3.3 60 60 WSW 8 13 30.10 1019 10 16 0.00 0.00
10:52 pm 22:52 Cloudy 39 3.9 26 -3.3 60 60 WSW 12 19 30.11 1020 10 16 0.00 0.00
11:52 pm 23:52 Mostly Cloudy 38 3.3 27 -2.8 65 65 SW 12 19 30.09 1019 10 16 0.00 0.00

Powered by AerisWeather